This demonstration page uses our WeatherBlox Daily Observations layout. Learn more.

Left ArrowRight Arrow

39.51506, -84.39828

Hourly Observations for February 13, 2019

Temp ( °F °C ) Dew Point ( °F °C ) Humidity (%) Winds ( mph kmh ) Pressure ( in mb ) Visibility ( mi km ) Precip ( " mm )
12:15 am 00:15 Cloudy 31 -0.4 22 -5.4 69 69 W 18 30 29.91 1013 10 16 0.00 0.00
12:35 am 00:35 Windy with Snow Likely 31 -0.7 22 -5.6 70 70 WSW 21 33 29.91 1013 10 16 0.00 0.00
12:55 am 00:55 Cloudy 31 -0.6 20 -6.8 63 63 WSW 20 31 29.92 1013 10 16 0.00 0.00
1:15 am 01:15 Cloudy 31 -0.7 20 -6.4 66 66 WSW 18 30 29.92 1013 10 16 0.00 0.00
1:35 am 01:35 Cloudy with Light Snow 31 -0.8 21 -6.2 67 67 WSW 17 28 29.93 1013 10 16 0.00 0.00
1:55 am 01:55 Windy with Snow Likely 30 -0.9 20 -6.4 67 67 WSW 20 31 29.93 1013 10 16 0.00 0.00
2:15 am 02:15 Cloudy 30 -1 20 -6.9 65 65 WSW 22 35 29.93 1013 10 16 0.00 0.00
2:35 am 02:35 Cloudy 30 -1.1 19 -7.5 62 62 WSW 18 30 29.93 1013 10 16 0.00 0.00
2:55 am 02:55 Cloudy 30 -1.2 19 -7.2 64 64 WSW 21 33 29.93 1013 10 16 0.00 0.00
3:15 am 03:15 Cloudy with Light Snow 30 -1.3 19 -7 66 66 WSW 18 30 29.93 1013 10 16 0.00 0.00
3:35 am 03:35 Cloudy with Light Snow 29 -1.5 19 -7 67 67 WSW 16 26 29.93 1014 10 16 0.00 0.00
3:55 am 03:55 Windy with Snow Likely 29 -1.5 20 -6.9 67 67 WSW 20 31 29.93 1014 10 16 0.00 0.00
4:15 am 04:15 Windy with Snow Likely 29 -1.8 19 -7.4 66 66 WSW 23 37 29.93 1014 10 16 0.00 0.00
4:35 am 04:35 Windy with Snow Likely 28 -2.1 18 -8 64 64 WSW 23 37 29.94 1014 10 16 0.00 0.00
4:55 am 04:55 Windy with Snow Likely 28 -2.2 17 -8.2 64 64 WSW 20 31 29.95 1014 10 16 0.00 0.00
5:15 am 05:15 Cloudy 28 -2.2 17 -8.4 63 63 WSW 24 39 29.95 1014 10 16 0.00 0.00
5:35 am 05:35 Windy with Snow Likely 28 -2.3 16 -8.7 62 62 WSW 29 46 29.96 1015 10 16 0.00 0.00
5:55 am 05:55 Cloudy 27 -2.7 16 -9.1 62 62 W 20 31 29.97 1015 10 16 0.00 0.00
6:15 am 06:15 Cloudy 27 -2.6 17 -8.3 65 65 WSW 20 31 29.98 1015 10 16 0.00 0.00
6:35 am 06:35 Cloudy with Light Snow 27 -2.6 18 -7.6 69 69 WSW 14 22 29.98 1015 10 16 0.00 0.00
6:55 am 06:55 Windy with Snow Likely 27 -2.8 17 -8.6 65 65 W 20 31 30.00 1016 10 16 0.00 0.00
7:15 am 07:15 Cloudy with Light Snow 27 -3 17 -8.3 67 67 WSW 13 20 30.01 1016 10 16 0.00 0.00
7:35 am 07:35 Cloudy with Light Snow 27 -3 17 -8.2 68 68 WSW 15 24 30.01 1016 10 16 0.00 0.00
7:55 am 07:55 Cloudy with Light Snow 26 -3.3 18 -7.7 72 72 W 14 22 30.02 1017 10 16 0.00 0.00
8:15 am 08:15 Windy with Snow Likely 26 -3.4 17 -8.3 69 69 WSW 20 31 30.03 1017 10 16 0.00 0.00
8:35 am 08:35 Cloudy with Light Snow 26 -3.3 16 -9 65 65 WSW 18 30 30.04 1017 10 16 0.00 0.00
8:55 am 08:55 Windy with Snow Likely 26 -3.3 16 -9.1 65 65 WSW 20 31 30.05 1018 10 16 0.00 0.00
9:15 am 09:15 Cloudy 26 -3.3 15 -9.4 63 63 W 24 39 30.06 1018 10 16 0.00 0.00
9:35 am 09:35 Windy with Snow Likely 26 -3.2 16 -9.1 64 64 W 20 31 30.07 1018 10 16 0.00 0.00
9:55 am 09:55 Cloudy with Light Snow 26 -3.1 16 -9.1 64 64 WSW 15 24 30.07 1018 10 16 0.00 0.00
10:15 am 10:15 Cloudy 27 -2.6 17 -8.6 64 64 W 13 20 30.08 1019 10 16 0.00 0.00
10:35 am 10:35 Cloudy 28 -2.2 17 -8.6 62 62 WSW 15 24 30.08 1019 10 16 0.00 0.00
10:55 am 10:55 Cloudy 28 -2 16 -8.8 60 60 W 21 33 30.09 1019 10 16 0.00 0.00
11:15 am 11:15 Mostly Cloudy 29 -1.8 16 -8.7 60 60 WSW 22 35 30.09 1019 10 16 0.00 0.00
11:35 am 11:35 Mostly Cloudy 30 -1 17 -8.1 59 59 W 18 30 30.10 1019 10 16 0.00 0.00
11:55 am 11:55 Partly Cloudy 29 -1.7 16 -8.9 58 58 W 21 33 30.09 1019 10 16 0.00 0.00
12:15 pm 12:15 Mostly Cloudy 31 -0.7 16 -8.7 55 55 W 20 31 30.10 1019 10 16 0.00 0.00
12:35 pm 12:35 Sunny 31 -0.4 17 -8.5 55 55 WSW 21 33 30.09 1019 10 16 0.00 0.00
12:55 pm 12:55 Partly Cloudy 31 -0.3 18 -8 56 56 WSW 26 43 30.09 1019 10 16 0.00 0.00
1:15 pm 13:15 Partly Cloudy 33 0.6 18 -7.8 54 54 SW 23 37 30.07 1018 10 16 0.00 0.00
1:35 pm 13:35 Partly Cloudy 34 1 18 -7.6 53 53 WSW 21 33 30.07 1018 10 16 0.00 0.00
1:55 pm 13:55 Sunny 35 1.4 19 -7.2 53 53 WSW 21 33 30.07 1018 10 16 0.00 0.00
2:15 pm 14:15 Sunny 35 1.5 19 -7.4 52 52 WSW 23 37 30.07 1018 10 16 0.00 0.00
2:35 pm 14:35 Sunny 35 1.7 19 -7.3 52 52 WSW 21 33 30.07 1018 10 16 0.00 0.00
2:55 pm 14:55 Sunny 35 1.9 19 -7.2 51 51 WSW 22 35 30.07 1018 10 16 0.00 0.00
3:15 pm 15:15 Sunny 36 2.3 20 -6.7 52 52 WSW 17 28 30.07 1018 10 16 0.00 0.00
3:35 pm 15:35 Sunny 36 2.4 20 -6.7 51 51 WSW 20 31 30.08 1019 10 16 0.00 0.00
3:55 pm 15:55 Sunny 36 2.4 20 -6.5 52 52 W 13 20 30.07 1018 10 16 0.00 0.00
4:15 pm 16:15 Sunny 37 2.5 20 -6.4 52 52 WSW 17 28 30.08 1019 10 16 0.00 0.00
4:35 pm 16:35 Sunny 36 2.4 20 -6.9 51 51 WSW 15 24 30.07 1018 10 16 0.00 0.00
4:55 pm 16:55 Sunny 35 1.9 19 -7.1 52 52 WSW 15 24 30.07 1018 10 16 0.00 0.00
5:15 pm 17:15 Sunny 35 1.5 19 -7 54 54 SW 15 24 30.08 1019 10 16 0.00 0.00
5:35 pm 17:35 Sunny 34 0.9 20 -6.8 57 57 SW 13 20 30.08 1019 10 16 0.00 0.00
5:55 pm 17:55 Sunny 33 0.7 20 -6.7 58 58 WSW 13 20 30.08 1019 10 16 0.00 0.00
6:15 pm 18:15 Clear 32 0.1 20 -6.6 61 61 WSW 9 15 30.09 1019 10 16 0.00 0.00
6:35 pm 18:35 Clear 32 0.1 20 -6.5 62 62 SW 10 17 30.09 1019 10 16 0.00 0.00
6:55 pm 18:55 Clear 32 -0.1 20 -6.4 63 63 SW 9 15 30.10 1019 10 16 0.00 0.00
7:15 pm 19:15 Clear 32 -0.2 20 -6.5 63 63 SW 9 15 30.10 1019 10 16 0.00 0.00
7:35 pm 19:35 Clear 31 -0.7 20 -6.4 66 66 SW 7 11 30.10 1019 10 16 0.00 0.00
7:55 pm 19:55 Clear 29 -1.5 21 -6.3 70 70 SW 3 6 30.09 1019 10 16 0.00 0.00
8:15 pm 20:15 Clear 29 -1.5 21 -6.2 71 71 Calm 30.09 1019 10 16 0.00 0.00
8:35 pm 20:35 Clear 29 -1.4 21 -6.1 71 71 Calm 30.09 1019 10 16 0.00 0.00
8:55 pm 20:55 Clear 30 -1.1 22 -5.8 71 71 Calm 30.09 1019 10 16 0.00 0.00
9:15 pm 21:15 Clear 30 -1.3 21 -6 71 71 Calm 30.09 1019 10 16 0.00 0.00
9:35 pm 21:35 Clear 27 -2.7 22 -5.6 81 81 Calm 30.08 1019 10 16 0.00 0.00
9:55 pm 21:55 Clear 28 -2.1 23 -4.8 82 82 SW 3 6 30.09 1019 10 16 0.00 0.00
10:15 pm 22:15 Clear 28 -2.2 23 -4.9 82 82 Calm 30.09 1019 10 16 0.00 0.00
10:35 pm 22:35 Clear 28 -2.1 23 -5 81 81 Calm 30.09 1019 10 16 0.00 0.00
10:55 pm 22:55 Clear 28 -2.1 23 -4.8 82 82 Calm 30.08 1019 10 16 0.00 0.00
11:15 pm 23:15 Clear 28 -2.5 24 -4.7 85 85 Calm 30.08 1019 10 16 0.00 0.00
11:35 pm 23:35 Clear 29 -1.7 24 -4.7 80 80 Calm 30.08 1019 10 16 0.00 0.00
11:55 pm 23:55 Partly Cloudy 29 -1.8 24 -4.2 84 84 SW 3 6 30.09 1019 10 16 0.00 0.00

Powered by AerisWeather